• In Netherlands
  • List of Countries
  • For 7 days
  • Water Temperature
  • Satellite Maps
  • Weather Map
  • Weather Widgets
  • user-avatar
    Login

    Hourly Weather Sarafovo

    Today, 20 January, Saturday

    Time Temperature Precipitation Wind Pressure Humidity
    00:00 +3°C° 0 mm 4 mps 757 mmHg 76%
    01:00 +3°C° 0 mm 4 mps 757 mmHg 79%
    02:00 +3°C° 0 mm 4 mps 756 mmHg 82%
    03:00 +3°C° 0 mm 4 mps 756 mmHg 83%
    04:00 +3°C° 0 mm 4 mps 756 mmHg 85%
    05:00 +1°C° 0 mm 4 mps 756 mmHg 86%
    06:00 +3°C° 0 mm 4 mps 756 mmHg 85%
    07:00 +3°C° 0 mm 4 mps 756 mmHg 83%
    08:00 +3°C° 0 mm 4 mps 756 mmHg 82%
    09:00 +4°C° 0 mm 4 mps 756 mmHg 77%
    10:00 +6°C° 0 mm 4 mps 756 mmHg 72%
    11:00 +7°C° 0 mm 4 mps 756 mmHg 67%
    12:00 +8°C° 0 mm 4 mps 755 mmHg 67%
    13:00 +10°C° 0 mm 3 mps 755 mmHg 67%
    14:00 +10°C° 0 mm 3 mps 755 mmHg 67%
    15:00 +10°C° 0 mm 3 mps 755 mmHg 70%
    16:00 +9°C° 0 mm 2 mps 755 mmHg 74%
    17:00 +8°C° 0 mm 2 mps 755 mmHg 77%
    18:00 +8°C° 0.4 mm 3 mps 754 mmHg 80%
    19:00 +8°C° 0.4 mm 3 mps 754 mmHg 82%
    20:00 +7°C° 0.4 mm 3 mps 754 mmHg 85%
    21:00 +6°C° 1 mm 4 mps 754 mmHg 86%
    22:00 +6°C° 1 mm 5 mps 755 mmHg 87%
    23:00 +4°C° 1 mm 6 mps 755 mmHg 88%

    Tomorrow, 21 January, Sunday

    Time Temperature Precipitation Wind Pressure Humidity
    00:00 +5°C° 1 mm 5 mps 755 mmHg 89%
    01:00 +4°C° 1 mm 4 mps 755 mmHg 90%
    02:00 +3°C° 1 mm 3 mps 756 mmHg 91%
    03:00 +3°C° 0 mm 3 mps 756 mmHg 91%
    04:00 +3°C° 0 mm 2 mps 756 mmHg 91%
    05:00 +3°C° 0 mm 2 mps 757 mmHg 91%
    06:00 +3°C° 0 mm 2 mps 757 mmHg 91%
    07:00 +3°C° 0 mm 2 mps 756 mmHg 91%
    08:00 +3°C° 0 mm 2 mps 756 mmHg 91%
    09:00 +3°C° 0.2 mm 3 mps 756 mmHg 90%
    10:00 +4°C° 0.2 mm 4 mps 756 mmHg 88%
    11:00 +5°C° 0.2 mm 5 mps 756 mmHg 86%
    12:00 +5°C° 0.9 mm 5 mps 755 mmHg 88%
    13:00 +5°C° 0.9 mm 5 mps 754 mmHg 91%
    14:00 +5°C° 0.9 mm 5 mps 753 mmHg 93%
    15:00 +5°C° 1.4 mm 5 mps 753 mmHg 94%
    16:00 +5°C° 1.4 mm 4 mps 752 mmHg 95%
    17:00 +5°C° 1.4 mm 4 mps 752 mmHg 96%
    18:00 +5°C° 1 mm 4 mps 751 mmHg 96%
    19:00 +5°C° 1 mm 4 mps 751 mmHg 97%
    20:00 +7°C° 1 mm 3 mps 750 mmHg 97%
    21:00 +7°C° 0.4 mm 3 mps 749 mmHg 97%
    22:00 +7°C° 0.4 mm 3 mps 749 mmHg 98%
    23:00 +8°C° 0.4 mm 3 mps 748 mmHg 98%

    Day after tomorrow, 22 January, Monday

    Time Temperature Precipitation Wind Pressure Humidity
    00:00 +7°C° 0.4 mm 4 mps 748 mmHg 97%
    01:00 +7°C° 0.4 mm 4 mps 747 mmHg 97%
    02:00 +7°C° 0.4 mm 5 mps 747 mmHg 97%
    03:00 +7°C° 0.5 mm 4 mps 746 mmHg 95%
    04:00 +7°C° 0.5 mm 4 mps 746 mmHg 93%
    05:00 +6°C° 0.5 mm 4 mps 746 mmHg 92%
    06:00 +6°C° 0.4 mm 5 mps 746 mmHg 90%
    07:00 +4°C° 0.4 mm 6 mps 746 mmHg 88%
    08:00 +3°C° 0.4 mm 7 mps 747 mmHg 86%
    09:00 +3°C° 0.2 mm 7 mps 747 mmHg 84%
    10:00 +2°C° 0.2 mm 8 mps 748 mmHg 83%
    11:00 +2°C° 0.2 mm 9 mps 748 mmHg 81%
    12:00 +2°C° 0.1 mm 10 mps 749 mmHg 80%
    13:00 +2°C° 0.1 mm 10 mps 749 mmHg 78%
    14:00 +2°C° 0.1 mm 11 mps 749 mmHg 77%
    15:00 +1°C° 0 mm 11 mps 750 mmHg 78%
    16:00 0°C° 0 mm 10 mps 751 mmHg 79%
    17:00 0°C° 0 mm 10 mps 752 mmHg 80%
    18:00 -2°C° 0 mm 10 mps 753 mmHg 80%
    19:00 -2°C° 0 mm 10 mps 754 mmHg 80%
    20:00 -2°C° 0 mm 10 mps 755 mmHg 81%
    21:00 -2°C° 0 mm 10 mps 755 mmHg 80%
    22:00 -3°C° 0 mm 9 mps 756 mmHg 80%
    23:00 -3°C° 0 mm 9 mps 757 mmHg 80%

    23 January, Tuesday

    Time Temperature Precipitation Wind Pressure Humidity
    00:00 -3°C° 0 mm 9 mps 757 mmHg 80%
    01:00 -3°C° 0 mm 9 mps 758 mmHg 80%
    02:00 -4°C° 0 mm 8 mps 758 mmHg 80%
    03:00 -4°C° 0 mm 8 mps 759 mmHg 80%
    04:00 -4°C° 0 mm 8 mps 759 mmHg 79%
    05:00 -4°C° 0 mm 8 mps 760 mmHg 78%
    06:00 -4°C° 0 mm 8 mps 760 mmHg 77%
    07:00 -4°C° 0 mm 8 mps 761 mmHg 75%
    08:00 -4°C° 0 mm 8 mps 762 mmHg 74%
    09:00 -2°C° 0 mm 8 mps 762 mmHg 69%
    10:00 -1°C° 0 mm 8 mps 763 mmHg 65%
    11:00 0°C° 0 mm 8 mps 763 mmHg 60%
    12:00 0°C° 0 mm 8 mps 763 mmHg 59%
    13:00 0°C° 0 mm 8 mps 763 mmHg 58%
    14:00 +1°C° 0 mm 8 mps 763 mmHg 57%
    15:00 0°C° 0 mm 7 mps 764 mmHg 59%
    16:00 -1°C° 0 mm 7 mps 765 mmHg 61%
    17:00 -1°C° 0 mm 7 mps 765 mmHg 64%
    18:00 -2°C° 0 mm 7 mps 766 mmHg 65%
    19:00 -3°C° 0 mm 7 mps 767 mmHg 67%
    20:00 -3°C° 0 mm 7 mps 767 mmHg 68%
    21:00 -3°C° 0 mm 7 mps 768 mmHg 66%
    22:00 -4°C° 0 mm 6 mps 768 mmHg 64%
    23:00 -4°C° 0 mm 6 mps 769 mmHg 62%

    24 January, Wednesday

    Time Temperature Precipitation Wind Pressure Humidity
    00:00 -4°C° 0 mm 6 mps 769 mmHg 59%
    01:00 -4°C° 0 mm 6 mps 769 mmHg 56%
    02:00 -4°C° 0 mm 6 mps 770 mmHg 53%
    03:00 -4°C° 0 mm 6 mps 770 mmHg 51%
    04:00 -5°C° 0 mm 6 mps 770 mmHg 49%
    05:00 -5°C° 0 mm 6 mps 770 mmHg 47%
    06:00 -5°C° 0 mm 6 mps 771 mmHg 45%
    07:00 -5°C° 0 mm 6 mps 771 mmHg 44%
    08:00 -5°C° 0 mm 6 mps 772 mmHg 42%
    09:00 -4°C° 0 mm 7 mps 772 mmHg 38%
    10:00 -3°C° 0 mm 7 mps 772 mmHg 34%
    11:00 -1°C° 0 mm 7 mps 772 mmHg 29%
    12:00 -1°C° 0 mm 7 mps 772 mmHg 30%
    13:00 0°C° 0 mm 7 mps 772 mmHg 31%
    14:00 0°C° 0 mm 7 mps 771 mmHg 31%
    15:00 -1°C° 0 mm 7 mps 771 mmHg 37%
    16:00 -2°C° 0 mm 6 mps 771 mmHg 42%
    17:00 -3°C° 0 mm 6 mps 771 mmHg 48%
    18:00 -3°C° 0 mm 6 mps 772 mmHg 54%
    19:00 -4°C° 0 mm 6 mps 772 mmHg 60%
    20:00 -4°C° 0 mm 6 mps 772 mmHg 66%
    21:00 -4°C° 0 mm 5 mps 772 mmHg 69%
    22:00 -4°C° 0 mm 5 mps 772 mmHg 72%
    23:00 -4°C° 0 mm 5 mps 772 mmHg 74%

    25 January, Thursday

    Time Temperature Precipitation Wind Pressure Humidity
    00:00 -4°C° 0 mm 5 mps 771 mmHg 75%
    01:00 -5°C° 0 mm 5 mps 771 mmHg 75%
    02:00 -5°C° 0 mm 6 mps 771 mmHg 75%
    03:00 -5°C° 0 mm 6 mps 771 mmHg 74%
    04:00 -5°C° 0 mm 6 mps 770 mmHg 72%
    05:00 -5°C° 0 mm 6 mps 770 mmHg 71%
    06:00 -5°C° 0 mm 6 mps 770 mmHg 67%
    07:00 -6°C° 0 mm 7 mps 770 mmHg 63%
    08:00 -6°C° 0 mm 7 mps 770 mmHg 58%
    09:00 -4°C° 0 mm 7 mps 770 mmHg 53%
    10:00 -3°C° 0 mm 7 mps 770 mmHg 48%
    11:00 -3°C° 0 mm 7 mps 770 mmHg 43%
    12:00 -2°C° 0 mm 7 mps 769 mmHg 46%
    13:00 -2°C° 0 mm 7 mps 769 mmHg 49%
    14:00 -1°C° 0 mm 6 mps 768 mmHg 52%
    15:00 -2°C° 0 mm 6 mps 768 mmHg 57%
    16:00 -2°C° 0 mm 6 mps 768 mmHg 62%
    17:00 -3°C° 0 mm 6 mps 768 mmHg 67%
    18:00 -3°C° 0 mm 6 mps 769 mmHg 69%
    19:00 -4°C° 0 mm 6 mps 769 mmHg 72%
    20:00 -4°C° 0 mm 6 mps 769 mmHg 75%
    21:00 -4°C° 0 mm 6 mps 769 mmHg 77%
    22:00 -4°C° 0 mm 6 mps 769 mmHg 79%
    23:00 -4°C° 0 mm 6 mps 769 mmHg 81%
    Show more